Adigeni

Georgia     41˚40′21″N   42˚42′49″E
temp.,
°C
wind,
m/s
gust,
m/s
humid.,
%
clouds,
%
prec.,
mm/h
press.,
hPa
HPBL,
m
27 november, fri
fri2701:00−7˚wnw229271 0.2 102859
04:00−7˚wnw229251 0.2 102950
07:00−7˚wnw229110 0.0 103030
10:00−4˚ssw11887 0.0 1030123
13:00se118558 0.0 1029385
16:00−1˚se128368 0.0 1027334
19:00−5˚s01885 0.0 103021
22:00−6˚se11862 0.0 103124
28 november, sat
sat2801:00−6˚se11810 0.0 103124
04:00−7˚se11750 0.0 103027
07:00−7˚se11700 0.0 103027
10:00−4˚se11670 0.0 102982
13:00se22620 0.0 1026141
16:00+1˚se12655 0.0 1025101
19:00−4˚sse006259 0.0 102721
22:00−5˚se016365 0.0 102821
29 november, sun
sun2901:00−5˚se016055 0.0 102721
04:00−5˚e015765 0.0 102822
07:00−6˚se015756 0.0 102721
10:00−2˚se116328 0.0 102647
13:00+2˚se12680 0.0 1023128
16:00+2˚sse11720 0.0 102267
19:00−3˚wnw00600 0.0 102421
22:00−3˚wnw00611 0.0 102421
30 november, mon
mon3001:00−3˚ssw007047 0.0 102421
04:00−4˚sse017524 0.0 102321
07:00−4˚sse01770 0.0 102221
10:00−1˚se11740 0.0 102262
13:00+2˚sse12700 0.0 1019158
16:00+2˚se11750 0.0 101890
19:00−2˚wsw01770 0.0 102021
22:00−3˚sse00810 0.0 102021
1 december, tue
tue101:00−4˚se01802 0.0 102121
04:00−4˚se01792 0.0 102121
07:00−5˚se017920 0.0 102121
10:00−2˚se117459 0.0 102171
13:00+1˚sse1270100 0.0 1020160
16:00+1˚sse1175100 0.0 101983
19:00−2˚sw0179100 0.0 102121
22:00−3˚sse0181100 0.0 102321